Weather History for KHSI - May, 2014

Change the Weather History Date:

Friday, May 9, 2014

  Actual Average Record
Temperature  
Mean Temperature 55 °F 59 °F  
Max Temperature 72 °F 70 °F 96 °F (1911)
Min Temperature 38 °F 48 °F 31 °F (1923)
Degree Days  
Heating Degree Days 10 7  
Month to date heating degree days 59 74  
Since 1 July heating degree days 6202 5913  
Cooling Degree Days 0 1  
Month to date cooling degree days 5 7  
Year to date cooling degree days 13 12  
Growing Degree Days 6 (Base 50)    
Moisture  
Dew Point 37 °F    
Average Humidity 54    
Maximum Humidity 79    
Minimum Humidity 29    
Precipitation  
Precipitation 0.00 in 0.14 in 1.60 in (1979)
Month to date precipitation 0.14 1.41  
Year to date precipitation 4.93 6.66  
Snow  
Snow 0.00 in 0.00 in T in (1924)
Month to date snowfall 0.0 0.0  
Since 1 July snowfall 21.7 28.8  
Snow Depth 0.00 in    
Sea Level Pressure  
Sea Level Pressure 29.85 in    
Wind  
Wind Speed 9 mph (SW)    
Max Wind Speed 17 mph    
Max Gust Speed 24 mph    
Visibility 10 miles    
Events      
T = Trace of Precipitation, MM = Missing Value Source: NWS Daily Summary

Daily Weather History Graph

Daily Weather History Graph

Search for Another Location

Airport or City:

Trip Planner

Search our weather history database for the weather conditions in past years. The results will help you decide how hot, cold, wet, or windy it might be!

Date:

Astronomy

May. 09, 2014 Rise Set
Actual Time 6:23 AM CDT 8:37 PM CDT
Civil Twilight 5:52 AM CDT 9:08 PM CDT
Nautical Twilight 5:15 AM CDT 9:45 PM CDT
Astronomical Twilight 4:34 AM CDT 10:27 PM CDT
Moon 3:35 PM CDT (5/9) 3:27 AM CDT (5/9)
Length of Visible Light 15h 15m
Length of Day
14h 14m
Waxing Gibbous, 74% of the Moon is Illuminated
May 9
Waxing Gibbous
May 14
Full
May 21
Last Quarter
May 28
New
Jun 5
First Quarter

Hourly Weather History & Observations

Time (CDT) Temp. Windchill Dew Point Humidity Pressure Visibility Wind Dir Wind Speed Gust Speed Precip Events Conditions
12:53 AM 45.0 °F 38.2 °F 36.0 °F 71% 29.88 in 10.0 mi NW 15.0 mph 20.7 mph N/A   Clear
1:53 AM 45.0 °F 38.9 °F 36.0 °F 71% 29.87 in 10.0 mi NNW 12.7 mph - N/A   Clear
2:53 AM 44.1 °F 37.4 °F 36.0 °F 73% 29.87 in 10.0 mi NW 13.8 mph - N/A   Clear
3:53 AM 42.8 °F 38.0 °F 35.6 °F 76% 29.87 in 10.0 mi WNW 8.1 mph - N/A   Clear
4:53 AM 41.0 °F 35.2 °F 35.1 °F 79% 29.89 in 10.0 mi WNW 9.2 mph - N/A   Clear
5:53 AM 39.0 °F 33.4 °F 34.0 °F 82% 29.91 in 10.0 mi West 8.1 mph - N/A   Clear
6:53 AM 39.2 °F 35.0 °F 33.8 °F 81% 29.91 in 10.0 mi WNW 5.8 mph - N/A   Clear
7:53 AM 42.1 °F 37.7 °F 35.1 °F 76% 29.95 in 10.0 mi West 6.9 mph - N/A   Clear
8:53 AM 46.0 °F 43.9 °F 35.1 °F 66% 29.94 in 10.0 mi West 4.6 mph - N/A   Clear
9:53 AM 51.1 °F - 35.1 °F 54% 29.94 in 10.0 mi West 5.8 mph - N/A   Clear
10:53 AM 55.0 °F - 35.1 °F 47% 29.92 in 10.0 mi Variable 4.6 mph - N/A   Clear
11:53 AM 59.0 °F - 34.0 °F 39% 29.91 in 10.0 mi Variable 5.8 mph - N/A   Partly Cloudy
12:53 PM 61.0 °F - 35.1 °F 38% 29.88 in 10.0 mi SSW 6.9 mph 18.4 mph N/A   Clear
1:53 PM 64.9 °F - 37.0 °F 36% 29.85 in 10.0 mi SSW 8.1 mph 20.7 mph N/A   Clear
2:53 PM 68.0 °F - 37.0 °F 32% 29.83 in 10.0 mi WSW 15.0 mph 19.6 mph N/A   Clear
3:53 PM 69.1 °F - 37.0 °F 31% 29.80 in 10.0 mi SW 15.0 mph 23.0 mph N/A   Clear
4:53 PM 71.1 °F - 37.9 °F 30% 29.78 in 10.0 mi SW 10.4 mph 18.4 mph N/A   Clear
5:53 PM 71.1 °F - 37.9 °F 30% 29.76 in 10.0 mi SSW 6.9 mph - N/A   Clear
6:53 PM 72.0 °F - 37.9 °F 29% 29.75 in 10.0 mi South 6.9 mph - N/A   Clear
7:53 PM 69.1 °F - 39.9 °F 35% 29.75 in 10.0 mi South 8.1 mph - N/A   Mostly Cloudy
8:53 PM 66.9 °F - 37.9 °F 34% 29.76 in 10.0 mi SSE 8.1 mph - N/A   Mostly Cloudy
9:53 PM 64.0 °F - 39.9 °F 41% 29.76 in 10.0 mi SSE 10.4 mph - N/A   Partly Cloudy
10:53 PM 63.0 °F - 39.0 °F 41% 29.77 in 10.0 mi SSE 11.5 mph - N/A   Clear
11:53 PM 62.1 °F - 39.9 °F 44% 29.75 in 10.0 mi SSE 12.7 mph - N/A   Clear